TimeEDT,TemperatureF,Dew PointF,Humidity,Sea Level PressureIn,VisibilityMPH,Wind Direction,Wind SpeedMPH,Gust SpeedMPH,PrecipitationIn,Events,Conditions,WindDirDegrees,DateUTC
12:15 AM,51.8,50.0,94,29.83,10.0,WNW,6.9,-,N/A,,Clear,300,2013-06-17 04:15:00
12:35 AM,51.8,50.0,94,29.83,10.0,WNW,6.9,-,N/A,,Clear,290,2013-06-17 04:35:00
12:55 AM,51.8,50.0,94,29.83,10.0,WNW,8.1,-,N/A,,Scattered Clouds,290,2013-06-17 04:55:00
1:15 AM,53.6,51.8,94,29.83,10.0,NW,5.8,-,N/A,,Overcast,320,2013-06-17 05:15:00
1:35 AM,51.8,50.0,94,29.84,10.0,WNW,8.1,-,N/A,,Overcast,300,2013-06-17 05:35:00
1:55 AM,51.8,51.8,100,29.84,10.0,NW,10.4,-,N/A,,Overcast,310,2013-06-17 05:55:00
2:15 AM,51.8,51.8,100,29.84,10.0,NW,6.9,-,N/A,,Overcast,310,2013-06-17 06:15:00
2:35 AM,51.8,51.8,100,29.85,10.0,NW,9.2,-,N/A,,Overcast,310,2013-06-17 06:35:00
2:55 AM,50.0,50.0,100,29.85,10.0,NNW,6.9,-,N/A,,Overcast,340,2013-06-17 06:55:00
3:15 AM,50.0,48.2,94,29.85,10.0,NNW,9.2,-,N/A,,Overcast,330,2013-06-17 07:15:00
3:35 AM,48.2,46.4,93,29.85,10.0,NW,6.9,-,N/A,,Overcast,320,2013-06-17 07:35:00
3:55 AM,48.2,46.4,93,29.85,9.0,NNW,9.2,-,N/A,,Overcast,330,2013-06-17 07:55:00
4:15 AM,48.2,46.4,93,29.86,1.2,NW,5.8,-,N/A,,Overcast,320,2013-06-17 08:15:00
4:35 AM,48.2,46.4,93,29.87,0.8,NW,6.9,-,N/A,,Overcast,320,2013-06-17 08:35:00
4:55 AM,48.2,46.4,93,29.88,0.5,NNW,6.9,-,N/A,,Overcast,330,2013-06-17 08:55:00
5:15 AM,48.2,46.4,93,29.88,1.2,NW,5.8,-,N/A,,Overcast,320,2013-06-17 09:15:00
5:35 AM,48.2,46.4,93,29.89,5.0,NW,5.8,-,N/A,,Overcast,320,2013-06-17 09:35:00
5:55 AM,48.2,46.4,93,29.90,0.5,NW,8.1,-,N/A,,Overcast,320,2013-06-17 09:55:00
6:15 AM,48.2,48.2,100,29.90,2.0,NW,3.5,-,N/A,,Overcast,320,2013-06-17 10:15:00
6:35 AM,48.2,46.4,93,29.90,9.0,North,5.8,-,N/A,,Overcast,350,2013-06-17 10:35:00
6:55 AM,48.2,46.4,93,29.91,10.0,North,5.8,-,N/A,,Overcast,360,2013-06-17 10:55:00
7:15 AM,50.0,48.2,94,29.92,10.0,North,3.5,-,N/A,,Overcast,350,2013-06-17 11:15:00
7:35 AM,50.0,48.2,94,29.92,10.0,NNW,3.5,-,N/A,,Overcast,330,2013-06-17 11:35:00
7:55 AM,51.8,48.2,88,29.93,10.0,Calm,Calm,-,N/A,,Overcast,0,2013-06-17 11:55:00
8:15 AM,51.8,48.2,88,29.93,10.0,NNE,5.8,-,N/A,,Overcast,30,2013-06-17 12:15:00
8:35 AM,51.8,48.2,88,29.93,10.0,NNE,6.9,-,N/A,,Overcast,20,2013-06-17 12:35:00
8:55 AM,53.6,48.2,82,29.93,10.0,NNE,8.1,-,N/A,,Overcast,30,2013-06-17 12:55:00
9:15 AM,53.6,48.2,82,29.94,10.0,ENE,6.9,-,N/A,,Overcast,60,2013-06-17 13:15:00
9:35 AM,53.6,48.2,82,29.94,10.0,NE,6.9,-,N/A,,Overcast,40,2013-06-17 13:35:00
9:55 AM,53.6,48.2,82,29.94,10.0,NE,6.9,-,N/A,,Overcast,50,2013-06-17 13:55:00
10:15 AM,53.6,48.2,82,29.95,10.0,NE,6.9,-,N/A,,Overcast,50,2013-06-17 14:15:00
10:35 AM,53.6,48.2,82,29.95,10.0,NE,6.9,-,N/A,,Overcast,50,2013-06-17 14:35:00
10:55 AM,55.4,48.2,77,29.95,9.0,ENE,5.8,-,N/A,,Overcast,60,2013-06-17 14:55:00
11:15 AM,55.4,50.0,82,29.95,10.0,East,4.6,-,N/A,,Overcast,90,2013-06-17 15:15:00
11:35 AM,57.2,48.2,72,29.96,10.0,ESE,5.8,-,N/A,,Overcast,110,2013-06-17 15:35:00
11:55 AM,57.2,48.2,72,29.97,10.0,SSE,3.5,-,N/A,,Overcast,150,2013-06-17 15:55:00
12:15 PM,57.2,48.2,72,29.98,10.0,SE,5.8,-,N/A,,Overcast,140,2013-06-17 16:15:00
12:35 PM,57.2,50.0,77,29.98,10.0,East,4.6,-,N/A,,Overcast,100,2013-06-17 16:35:00
12:55 PM,57.2,50.0,77,29.98,10.0,SE,3.5,-,N/A,,Overcast,140,2013-06-17 16:55:00
1:15 PM,57.2,50.0,77,29.98,10.0,ESE,3.5,-,N/A,,Overcast,110,2013-06-17 17:15:00
1:35 PM,59.0,50.0,72,29.98,10.0,East,3.5,-,N/A,,Overcast,80,2013-06-17 17:35:00
1:55 PM,59.0,50.0,72,29.98,10.0,ESE,4.6,-,N/A,,Overcast,110,2013-06-17 17:55:00
2:15 PM,60.8,50.0,68,29.98,10.0,NE,3.5,-,N/A,,Overcast,40,2013-06-17 18:15:00
2:35 PM,60.8,51.8,72,29.98,10.0,SE,4.6,-,N/A,,Overcast,140,2013-06-17 18:35:00
2:55 PM,60.8,50.0,68,29.98,10.0,Calm,Calm,-,N/A,,Overcast,0,2013-06-17 18:55:00
3:15 PM,62.6,50.0,63,29.97,10.0,Calm,Calm,-,N/A,,Overcast,0,2013-06-17 19:15:00
3:35 PM,62.6,51.8,68,29.97,10.0,South,8.1,-,N/A,,Overcast,180,2013-06-17 19:35:00
3:55 PM,60.8,51.8,72,29.96,10.0,Calm,Calm,-,N/A,,Overcast,0,2013-06-17 19:55:00
4:15 PM,62.6,50.0,63,29.96,10.0,Calm,Calm,-,N/A,,Scattered Clouds,0,2013-06-17 20:15:00
4:35 PM,64.4,51.8,64,29.95,10.0,East,5.8,-,N/A,,Scattered Clouds,100,2013-06-17 20:35:00
4:55 PM,64.4,51.8,64,29.95,10.0,ENE,5.8,-,N/A,,Mostly Cloudy,60,2013-06-17 20:55:00
5:15 PM,62.6,50.0,63,29.96,10.0,ENE,5.8,-,N/A,,Mostly Cloudy,60,2013-06-17 21:15:00
5:35 PM,62.6,50.0,63,29.96,10.0,North,4.6,-,N/A,,Mostly Cloudy,360,2013-06-17 21:35:00
5:55 PM,64.4,48.2,56,29.96,10.0,NW,4.6,-,N/A,,Partly Cloudy,320,2013-06-17 21:55:00
6:15 PM,64.4,48.2,56,29.96,10.0,NW,8.1,-,N/A,,Clear,320,2013-06-17 22:15:00
6:35 PM,64.4,48.2,56,29.96,10.0,North,8.1,-,N/A,,Clear,350,2013-06-17 22:35:00
6:55 PM,62.6,48.2,59,29.97,10.0,North,8.1,-,N/A,,Clear,350,2013-06-17 22:55:00
7:15 PM,62.6,50.0,63,29.97,10.0,NNW,9.2,-,N/A,,Clear,340,2013-06-17 23:15:00
7:35 PM,60.8,48.2,63,29.98,10.0,NNW,10.4,-,N/A,,Clear,340,2013-06-17 23:35:00
7:55 PM,57.2,48.2,72,29.98,10.0,North,11.5,-,N/A,,Clear,350,2013-06-17 23:55:00
8:15 PM,57.2,46.4,67,29.98,10.0,NW,10.4,-,N/A,,Clear,310,2013-06-18 00:15:00
8:35 PM,55.4,48.2,77,29.99,10.0,North,5.8,-,N/A,,Clear,350,2013-06-18 00:35:00
8:55 PM,55.4,46.4,72,29.99,10.0,North,4.6,-,N/A,,Clear,350,2013-06-18 00:55:00
9:15 PM,53.6,46.4,77,29.99,10.0,West,3.5,-,N/A,,Clear,260,2013-06-18 01:15:00
9:35 PM,51.8,44.6,76,30.01,10.0,NW,10.4,-,N/A,,Clear,310,2013-06-18 01:35:00
9:55 PM,50.0,44.6,82,30.01,10.0,NW,5.8,-,N/A,,Clear,310,2013-06-18 01:55:00
10:15 PM,48.2,44.6,87,30.02,10.0,WSW,3.5,-,N/A,,Clear,250,2013-06-18 02:15:00
10:35 PM,48.2,42.8,82,30.02,10.0,West,3.5,-,N/A,,Clear,270,2013-06-18 02:35:00
10:55 PM,46.4,42.8,87,30.03,10.0,West,5.8,-,N/A,,Partly Cloudy,260,2013-06-18 02:55:00
11:15 PM,46.4,42.8,87,30.03,10.0,West,5.8,-,N/A,,Mostly Cloudy,260,2013-06-18 03:15:00
11:35 PM,48.2,42.8,82,30.03,10.0,West,5.8,-,N/A,,Mostly Cloudy,280,2013-06-18 03:35:00
11:55 PM,46.4,42.8,87,30.04,10.0,West,5.8,-,N/A,,Partly Cloudy,280,2013-06-18 03:55:00